Location: Feydey
(46.3431°N, 7.0106°E)
Time: 04:31:43
(UTC+00:00)

SL-4 R/B - Visible Passes

Search period start: 17 October 2021 00:00
Search period end: 27 October 2021 00:00
Orbit: 427 x 662 km, 51.6° (Epoch: 15 October)

Date Brightness Start Highest point End Pass type
(mag) Time Alt. Az. Time Alt. Az. Time Alt. Az.
17 Oct 5.4 02:02:52 10° ENE 02:02:52 10° ENE 02:02:54 10° ENE visible
17 Oct 2.8 03:38:25 43° N 03:38:26 43° N 03:42:28 10° ENE visible
17 Oct 2.7 05:14:27 10° WNW 05:18:37 46° NNE 05:22:28 10° E visible
18 Oct 3.0 03:31:31 41° N 03:31:31 41° N 03:35:17 10° ENE visible
18 Oct 2.6 05:07:11 10° WNW 05:11:26 50° NNE 05:15:20 10° E visible
19 Oct 3.2 03:24:38 39° NNE 03:24:38 39° NNE 03:28:06 10° ENE visible
19 Oct 2.5 05:00:11 11° WNW 05:04:14 57° NNE 05:08:11 10° E visible
20 Oct 3.4 03:17:46 36° NNE 03:17:46 36° NNE 03:20:56 10° ENE visible
20 Oct 2.3 04:53:19 14° WNW 04:57:01 66° NNE 05:01:00 10° ESE visible
21 Oct 3.6 03:10:56 33° NE 03:10:56 33° NE 03:13:46 10° ENE visible
21 Oct 2.1 04:46:29 17° WNW 04:49:46 77° NNE 04:53:48 10° ESE visible
22 Oct 3.9 03:04:09 30° NE 03:04:09 30° NE 03:06:37 10° E visible
22 Oct 2.0 04:39:42 21° WNW 04:42:31 90° SW 04:46:33 10° ESE visible
23 Oct 4.2 02:57:24 26° ENE 02:57:24 26° ENE 02:59:28 10° E visible
23 Oct 2.0 04:32:58 27° WNW 04:35:14 75° SSW 04:39:16 10° SE visible
24 Oct 4.5 02:50:45 21° E 02:50:45 21° E 02:52:18 10° E visible
24 Oct 2.1 04:26:19 35° W 04:27:55 61° SSW 04:31:56 10° SE visible
25 Oct 4.8 02:44:11 16° E 02:44:11 16° E 02:45:07 10° E visible
25 Oct 2.3 04:19:45 42° WSW 04:20:35 49° SW 04:24:32 10° SE visible
26 Oct 5.2 02:37:43 11° E 02:37:43 11° E 02:37:56 10° E visible
26 Oct 2.6 04:13:17 39° SW 04:13:17 39° SW 04:17:03 10° SSE visible
